Wind_Speed
31 29 25 25 26 29 29 30 33 41 40 38 37 32 27 25 27 27 27 24 23 21
27 30 28 23 24 26 26 26 27 32 40 39 37 37 35 33 31 35 31 27 27 24
14 30 32 24 23 22 22 22 25 27 30 29 31 30 28 26 30 32 33 34 29 26
5 21 29 29 25 18 19 22 22 25 27 27 29 29 29 26 25 29 28 29 34 29
2 10 25 26 22 25 20 19 21 22 23 25 26 27 28 27 27 28 26 26 29 28
6 1 11 20 25 25 24 21 20 21 24 28 28 27 28 27 25 27 29 28 27 28
10 6 1 11 17 23 25 26 22 23 25 27 27 28 27 27 26 26 26 26 27 26
13 8 3 4 12 18 24 23 24 21 25 28 29 29 29 29 24 25 26 27 26 26
16 11 7 1 5 14 16 19 17 17 21 25 27 29 29 29 29 29 29 26 30 29
23 18 13 8 2 5 14 16 19 18 19 21 24 25 25 26 24 26 28 30 28 29
27 24 21 14 9 6 5 11 19 20 20 19 19 19 21 23 24 24 25 25 26 25
27 27 25 23 16 14 10 8 10 14 17 17 19 20 20 20 23 22 20 20 20 21
26 26 27 27 23 19 18 19 18 18 15 10 10 18 20 21 22 21 19 16 16 16
29 25 27 27 29 27 25 25 25 22 23 25 22 13 13 19 22 22 19 17 16 16
Wind_Direction
205 205 209 205 198 193 193 200 205 207 213 213 215 209 205 205 204 205 207 212 215 218
201 202 209 208 199 195 199 202 202 205 209 211 214 215 215 213 213 219 216 217 218 217
196 205 208 210 201 199 201 200 198 198 200 202 203 204 204 210 218 218 222 224 224 226
192 196 206 211 214 205 201 199 197 198 199 202 206 208 207 211 213 215 219 221 226 227
330 183 203 209 206 211 202 202 199 198 198 200 203 202 205 211 212 214 213 217 220 227
356 98 163 200 217 215 217 207 203 198 198 199 201 199 206 209 213 215 215 217 218 223
354 347 221 174 195 211 215 218 204 202 203 207 212 214 214 214 214 220 224 225 222 227
356 348 335 183 182 194 207 207 208 205 204 209 212 218 223 224 217 216 219 221 222 227
8 10 8 348 185 181 195 204 202 201 210 211 216 224 228 231 228 228 226 222 232 235
10 17 18 15 63 184 183 201 205 206 209 211 218 222 222 222 223 223 224 225 231 230
13 16 26 30 41 43 173 189 201 205 206 207 211 212 212 212 216 222 224 226 229 232
14 18 20 26 38 51 71 106 145 182 198 204 211 208 208 206 210 216 217 219 225 229
17 23 25 26 38 56 65 75 79 95 103 118 191 210 205 203 207 209 210 212 218 222
20 19 31 34 38 48 59 74 66 61 70 73 70 84 178 197 206 209 204 207 210 214
Height
751 756 761 764 766 771 776 780 786 792 797 802 808 813 819 822 826 830 833 838 841 844
746 750 755 759 763 766 770 776 781 785 790 796 802 806 811 815 819 823 827 832 836 839
741 745 749 756 758 762 766 770 775 780 786 792 796 801 806 810 814 818 821 825 829 834
736 739 744 749 754 758 762 766 770 774 780 785 791 794 799 804 809 812 815 818 822 825
734 735 739 744 749 753 758 762 766 770 774 779 784 788 793 798 802 805 809 812 815 818
735 735 735 740 743 748 753 757 761 764 768 772 777 782 786 791 795 798 800 805 808 811
738 735 735 735 740 744 748 753 756 759 763 766 772 776 780 784 788 791 794 798 801 804
742 738 735 734 736 739 744 748 751 755 758 761 765 769 774 778 782 785 789 792 794 796
745 740 737 735 734 736 740 744 748 750 753 756 759 763 768 772 774 778 781 784 786 789
747 743 739 736 733 734 736 740 743 746 749 752 754 758 762 766 769 772 774 778 780 783
750 746 743 738 736 735 735 737 740 743 746 748 751 754 757 761 764 767 770 772 775 778
756 750 747 742 740 736 736 736 737 740 743 745 748 751 754 757 760 763 766 768 770 773
763 757 752 748 744 740 740 739 739 740 741 744 746 748 751 754 757 759 762 764 767 769
769 764 760 756 751 747 744 744 742 745 744 745 747 746 747 750 752 755 758 761 764 766